Regional Weather Roundup
Issued by NWS

Home | Current Version | Previous Version | Text Only | Print | Product List | Glossary On
Versions: 1 2 3 4 5 6 7 8 9 10 11 12 13 14 15 16 17 18 19 20 21 22 23 24 25 26 27 28 29 30 31 32 33 34 35 36 37 38 39 40 41 42 43 44 45 46 47 48 49 50
764
ASUS44 KJAN 212310
RWRMS

MISSISSIPPI HOURLY WEATHER ROUNDUP
NATIONAL WEATHER SERVICE JACKSON MS
600 PM CDT THU SEP 21 2017

NOTE: "FAIR: INDICATES FEW OR NO CLOUDS BELOW 12,000 FEET WITH NO
SIGNIFICANT WEATHER AND/OR OBSTRUCTIONS TO VISIBILITY.

MSZ001>002-007>008-010>013-018>021-025>028-034>036-220000-
NORTHWEST MISSISSIPPI

CITY           SKY/WX    TMP DP  RH WIND       PRES   REMARKS
BATESVILLE     FAIR      89  69  52 CALM      29.98S HX  93
CLARKSDALE       N/A     90  72  55 E6        29.96S HX  96
CLEVELAND      FAIR      89  70  53 E3        29.94S HX  94
GREENWOOD      SUNNY     90  69  50 SE5       29.95F HX  94
GREENVILLE     PTSUNNY   92  68  45 CALM      29.94S HX  96
OLIVE BRANCH   MOSUNNY  N/A N/A N/A CALM      29.97F
OXFORD         FAIR      88  70  55 N6        29.99S HX  92
TUNICA           N/A     88  72  58 E5        29.97S HX  94
WINONA         FAIR      88  70  54 CALM      29.96F HX  93
$$

MSZ003>006-009-014>017-022>024-029>033-037>039-220000-
NORTHEAST MISSISSIPPI

CITY           SKY/WX    TMP DP  RH WIND       PRES   REMARKS
COLUMBUS AFB   PTCLDY    90  73  57 N3        29.96S HX  97
GOLDN TRIANGLE MOSUNNY   89  72  56 NW6       29.96S HX  96
STARKVILLE     FAIR      88  72  58 CALM      29.97S HX  94
TUPELO         CLOUDY    90  66  45 NW5       29.97S HX  92
$$

MSZ040-058-220000-
CENTRAL MISSISSIPPI

CITY           SKY/WX    TMP DP  RH WIND       PRES   REMARKS
JACKSON INTL   SUNNY     90  72  55 CALM      29.96S HX  97
JACKSON HAWKNS SUNNY     89  70  53 E5        29.96S HX  94
MADISON        FAIR      86  72  62 CALM      29.96S HX  92
MERIDIAN KEY   SUNNY     90  69  50 E5        29.96S HX  94
MERIDIAN NAS   MOSUNNY   90  70  51 E7        29.96F HX  95
RAYMOND          N/A     90  75  62 CALM      29.95S HX 100
VICKSBURG VKS  CLEAR     90  72  55 CALM      29.96S HX  96
$$

MSZ059>079-220000-
SOUTH MISSISSIPPI

CITY           SKY/WX    TMP DP  RH WIND       PRES   REMARKS
HATTIESBURG    SUNNY     89  71  55 E3        29.96R HX  95
LAUREL         FAIR      89  67  49 NE6       29.96R HX  92
MCCOMB         CLOUDY    78  71  79 CALM      29.97S
NATCHEZ        SUNNY     86  73  65 CALM      29.96S HX  93
PINE BELT      SUNNY     88  71  57 E3        29.97R HX  94
$$

MSZ080>082-220000-
COASTAL MISSISSIPPI

CITY           SKY/WX    TMP DP  RH WIND       PRES   REMARKS
BILOXI         CLOUDY    82  74  77 NE3       29.95R
PASCAGOULA     TSTM      77  72  84 E7        29.97R
GULFPORT       CLOUDY    83  69  62 CALM      29.95R
$$

LAZ007>009-015>016-023>026-220000-
NORTHEAST LOUISIANA

CITY           SKY/WX    TMP DP  RH WIND       PRES   REMARKS
BASTROP        FAIR      90  70  51 CALM      29.95S HX  95
TALLULAH/VBURG SUNNY     89  71  55 E6        29.94F HX  95
VIDALIA          N/A    N/A N/A N/A MISG      29.93S
$$




USA.gov is the U.S. government's official web portal to all federal, state and local government web resources and services.